Retour au catalogue

STARLINK-5520

ActifCommunicationsVLEO
NORAD 57219·PAYLOAD·🇺🇸 United States

Lancé Jul 7, 2023 depuis Vandenberg Space Force Base

Loading…

Prochains Passages (prochaines 24 heures)

TLE

FraisSource: CelesTrak SupGP

Époque: Sep 15, 2026, 02:10 UTC

1 57219C 23094B   26258.09076389 -.00143900  00000+0 -52092-2 0  2583
2 57219  43.0014  44.4191 0001708 265.6255  63.1243 15.27666279    19

Suivez STARLINK-5520 en temps réel avec AllMySat

Download on the App Store